Terminal Aerodrome Forecast
Issued by NWS Pittsburgh, PA

Current Version | Previous Version | Graphics & Text | Print | Product List | Glossary On
Versions: 1 2 3 4 5 6 7 8 9 10 11 12 13 14 15 16 17 18 19 20 21 22 23 24 25 26 27 28 29 30 31 32 33 34
000
FTUS41 KPBZ 020200 AAA
TAFPIT
TAF AMD
KPIT 020256Z 0203/0306 26006KT 4SM -SN BR OVC008
     FM020900 27006KT P6SM SCT008 OVC015
     FM021500 30007KT P6SM BKN025
     FM022300 33005KT P6SM SCT250=

USA.gov is the U.S. government's official web portal to all federal, state and local government web resources and services.